Regional Weather Roundup
Issued by NWS Charleston, SC

Current Version | Previous Version | Graphics & Text | Print | Product List | Glossary On
Versions: 1 2 3 4 5 6 7 8 9 10 11 12 13 14 15 16 17 18 19 20 21 22 23 24 25 26 27 28 29 30 31 32 33 34 35 36 37 38 39 40 41 42 43 44 45 46 47 48 49 50
000 ASUS42 KCHS 200710 RWRCHS REGIONAL WEATHER ROUNDUP NATIONAL WEATHER SERVICE CHARLESTON SC 300 AM EDT WED AUG 20 2014 NOTE: "FAIR" INDICATES FEW OR NO CLOUDS BELOW 12,000 FEET WITH NO SIGNIFICANT WEATHER AND/OR OBSTRUCTIONS TO VISIBILITY. NOT ALL STATIONS ARE QUALITY CONTROLLED BY THE NATIONAL WEATHER SERVICE. USE DATA WITH CAUTION...ESPECIALLY DEWPOINT OBSERVATIONS. SCZ027-030-031-034>040-042>050-200800- ...SOUTH CAROLINA... CITY SKY/WX TMP DP RH WIND PRES REMARKS N CHARLESTON CLEAR 77 73 87 W8 29.90F WATERFRONT PRK N/A 77 N/A N/A W8G14 N/A FORT JOHNSON NOT AVBL MOUNT PLEASANT FAIR 79 75 89 W8 29.90S JOHNS ISLAND SUNNY 77 75 94 W3 29.91S PINOPOLIS N/A 79 75 89 SW10 29.83S MONCKS CORNER N/A 77 75 94 W6 29.90S SUMMERVILLE FAIR 75 75 100 SW5 29.91F BEAUFORT MCAS CLEAR 76 72 87 NW10 29.92F BEAUFORT ARPT FAIR 75 72 88 W10 29.92S HILTON HEAD IS CLEAR 75 72 88 SW10G17 29.94S GEORGETOWN NOT AVBL WALTERBORO SUNNY 75 N/A N/A W7 29.92F ORANGEBURG CLEAR 74 70 87 W3 29.92S BARNWELL FAIR 73 72 94 CALM 29.93S AIKEN FAIR 72 72 100 SW3 29.95S MANNING FAIR 75 N/A N/A CALM 29.90S KINGSTREE NOT AVBL COLUMBIA PTCLDY 76 70 82 SW6 29.89F SUMTER PTCLDY 75 72 90 SW6 29.89S FLORENCE PTCLDY 75 72 90 CALM 29.89S MYRTLE BEACH CLEAR 79 73 83 W7 29.88F N MYRTLE BEACH PTCLDY 75 74 96 CALM 29.87F $$ GAZ063-065-086>088-099>101-113>116-118-119-134-136>141-150-200800- ...GEORGIA... CITY SKY/WX TMP DP RH WIND PRES REMARKS SAVANNAH ARPT MOCLDY 74 70 87 W10 29.95F HUNTER AAF CLEAR 74 71 90 W9 29.92F FORT STEWART CLEAR 73 69 88 W7 29.94F STATESBORO NOT AVBL SYLVANIA SUNNY 74 74 99 CALM 29.94S CLAXTON FAIR 73 73 100 CALM 29.95F THOMSON MOCLDY 76 75 96 CALM 29.97S AUGUSTA-BUSH CLEAR 72 70 93 CALM 29.91F AUGUSTA-DANIEL CLEAR 76 71 85 CALM 29.92F SWAINSBORO FAIR 73 73 100 CALM 29.95F VIDALIA N/A 72 72 100 CALM 29.95F ALMA CLEAR 72 70 93 S3 29.96F WAYCROSS CLEAR 77 74 93 CALM 29.97F JESUP N/A 73 72 94 W3 29.97F BRUNSWICK NOT AVBL SAINT SIMONS CLEAR 76 72 87 W6 29.97F $$ SCZ027-028-034-036>038-045-046-048>050-GAZ119-141-200800- ...LAKE AND SUPPLEMENTAL COASTAL OBSERVATIONS... STATION/POSITION TIME TEMP WIND PRES WAVE SWELL AIR SEA DIR/SP/G HT/PER HT/PER/DIR (UTC) (F) (DEG/KT/KT) (MB) (FT/S) (FT/S/D) UPR LAKE MARION NOT AVBL WINYAH BAY 0600 78 240/ 5 1012.0S LAKE MURRAY 0600 78 270/ 5/ 6 1011.9F ACE BASIN NERRS 0600 77 250/ 2 1013.0S FORT PULASKI 0700 75 260/ 9/ 14 1014.0S SAPELO ISLAND 0600 77 250/ 10 1015.0S $$ ANZ835-935-AMZ111-154-330-350-352-354-374-450-454-472-200800- ...C-MAN AND BUOY OBSERVATIONS... STATION/POSITION TIME TEMP WIND PRES WAVE SWELL AIR SEA DIR/SP/G HT/PER HT/PER/DIR (UTC) (F) (DEG/KT/KT) (MB) (FT/S) (FT/S/D) FOLLY BEACH CMAN 0600 77 240/ 6/ 9 1013.3F BUOY 41004 0700 83 83 240/ 14/ 17 1011.5F 4/ 5 2/ 8 BUOY 41008 0700 82 85 270/ 21/ 25 1013.7F 3/ 4 5E ST. MARYS GA 0700 81 N/A 1/ 8 FRYING PAN BUOY NOT AVBL BUOY 41025 0700 79 310/ 6/ 8 1010.0F 3/ 7 2/180/ 7 CAPE LOOKOUT NC 0600 80 340/ 5/ 6 1010.4F BUOY 41002 0634 81 81 240/ 19/ 23 1013.6F 5/ 6 2/260/12 BUOY 41010 0700 84 86 200/ 14/ 16 1015.7F 2/ 8 2/130/ 8 BUOY 41012 NOT AVBL ST AUGUSTINE FL 0700 78 270/ 6/ 7 1016.2F CAPERS NEARSHORE NOT AVBL FRIPP NEARSHORE NOT AVBL $$

USA.gov is the U.S. government's official web portal to all federal, state and local government web resources and services.